Rawlins, WY

12:35 PM MDT on April 29, 2017 (GMT -0600)
Rawlins Municipal

Weather History for KRWL - January, 2013

Change the Weather History Date:

Saturday, January 5, 2013

  Actual Average Record
Temperature  
Mean Temperature 7 °F 22 °F  
Max Temperature 25 °F 31 °F 50 °F (2012)
Min Temperature -12 °F 12 °F -28 °F (1979)
Degree Days  
Heating Degree Days 58 43  
Month to date heating degree days 291 215  
Since 1 July heating degree days 2911 3669  
Cooling Degree Days 0 0  
Month to date cooling degree days 0 0  
Year to date cooling degree days 0 0  
Moisture  
Dew Point -5 °F    
Average Humidity 61    
Maximum Humidity 79    
Minimum Humidity 42    
Precipitation  
Precipitation 0.00 in 0.01 in 0.22 in (1987)
Month to date precipitation T 0.07  
Year to date precipitation T 0.07  
Sea Level Pressure  
Sea Level Pressure 30.53 in    
Wind  
Wind Speed 6 mph (West)    
Max Wind Speed 24 mph    
Max Gust Speed 32 mph    
Visibility 10 miles    
Events      
T = Trace of Precipitation, MM = Missing Value Source: NWS Daily Summary

Daily Weather History Graph

Daily Weather History Graph

Search for Another Location

Airport or City:

Trip Planner

Search our weather history database for the weather conditions in past years. The results will help you decide how hot, cold, wet, or windy it might be!

Date:

Astronomy

Jan. 05, 2013 Rise Set
Actual Time 7:36 AM MST 4:52 PM MST
Civil Twilight 7:05 AM MST 5:24 PM MST
Nautical Twilight 6:30 AM MST 5:58 PM MST
Astronomical Twilight 5:56 AM MST 6:32 PM MST
Moon 12:43 AM MST (1/5) 11:46 AM MST (1/5)
Length of Visible Light 10h 18m
Length of Day
9h 16m
Last Quarter, 43% of the Moon is Illuminated
Jan 5
Last Quarter
Jan 11
New
Jan 18
First Quarter
Jan 26
Full
Feb 3
Last Quarter

Hourly Weather History & Observations

Time (MST) Temp. Windchill Dew Point Humidity Pressure Visibility Wind Dir Wind Speed Gust Speed Precip Events Conditions
12:53 AM -2.9 °F -11.2 °F -9.0 °F 75% 30.41 in 10.0 mi North 3.5 mph - N/A   Clear
1:53 AM -2.9 °F - -9.9 °F 72% 30.41 in 10.0 mi Calm Calm - N/A   Clear
2:53 AM -2.9 °F - -9.9 °F 72% 30.42 in 10.0 mi Calm Calm - N/A   Clear
3:53 AM -0.0 °F - -8.0 °F 69% 30.42 in 10.0 mi Calm Calm - N/A   Clear
4:53 AM -7.1 °F -15.9 °F -13.0 °F 75% 30.53 in 10.0 mi South 3.5 mph - N/A   Clear
5:53 AM -9.0 °F - -15.0 °F 75% 30.55 in 10.0 mi Calm Calm - N/A   Clear
6:53 AM -9.9 °F - -16.1 °F 74% 30.60 in 10.0 mi Calm Calm - N/A   Clear
7:53 AM -6.0 °F - -11.9 °F 75% 30.14 in 10.0 mi Calm Calm - N/A   Clear
8:53 AM 3.9 °F -5.3 °F -5.1 °F 66% 30.60 in 10.0 mi NE 4.6 mph - N/A   Clear
9:53 AM 17.1 °F 0.1 °F -0.0 °F 47% 30.51 in 10.0 mi WSW 20.7 mph 27.6 mph N/A   Clear
10:53 AM 19.0 °F 3.6 °F 1.9 °F 47% 30.51 in 10.0 mi WSW 18.4 mph 29.9 mph N/A   Clear
11:53 AM 21.0 °F 7.1 °F 3.9 °F 48% 30.55 in 10.0 mi WSW 16.1 mph 27.6 mph N/A   Clear
12:53 PM 21.9 °F 7.8 °F 3.9 °F 46% 30.51 in 10.0 mi WSW 17.3 mph 24.2 mph N/A   Clear
1:53 PM 23.0 °F 10.1 °F 5.0 °F 46% 30.51 in 10.0 mi WSW 15.0 mph - N/A   Clear
2:53 PM 24.1 °F 15.2 °F 5.0 °F 44% 30.51 in 10.0 mi West 8.1 mph - N/A   Clear
3:53 PM 25.0 °F 19.3 °F 5.0 °F 43% 30.50 in 10.0 mi WSW 4.6 mph - N/A   Clear
4:53 PM 16.0 °F 8.8 °F 3.9 °F 59% 30.58 in 10.0 mi South 4.6 mph - N/A   Clear
5:53 PM 14.0 °F - 1.9 °F 59% 30.63 in 10.0 mi Calm Calm - N/A   Clear
6:53 PM -0.0 °F - -7.1 °F 72% 30.71 in 10.0 mi Calm Calm - N/A   Clear
7:53 PM -2.0 °F - -8.0 °F 76% 30.70 in 10.0 mi Calm Calm - N/A   Clear
8:53 PM -0.9 °F - -7.1 °F 75% 30.64 in 10.0 mi Calm Calm - N/A   Clear
9:53 PM -4.0 °F - -9.0 °F 79% 30.58 in 10.0 mi Calm Calm - N/A   Clear
10:53 PM -0.9 °F -17.4 °F -7.1 °F 75% 30.56 in 10.0 mi NNW 10.4 mph - N/A   Clear
11:53 PM -0.9 °F -15.3 °F -7.1 °F 75% 30.53 in 10.0 mi North 8.1 mph - N/A   Clear